Location: River House Observatory
(37.8577°N, 76.3548°W)
Time: 20:08:18
(UTC-05:00)

Hubble Space Telescope - Pass Details

Date: 30 January 2018
Orbit: 537 x 541 km, 28.5° (Epoch: 20 February)

Event Time Altitude Azimuth Distance (km) Brightness Sun altitude
Rises 19:21:02 0° 253° (WSW) 2,671 5.7 -22.7°
Reaches altitude 10° 19:24:04 10° 230° (SW) 1,779 4.1 -23.3°
Maximum altitude 19:26:28 15° 194° (SSW) 1,479 3.2 -23.8°
Enters shadow 19:27:22 14° 179° (S) 1,523 3.1 -24.0°
